Location: Grossmotten
(48.5500°N, 15.3833°E)
Time: 04:07:18
(UTC+00:00)

NOSS 3-4 (A) - Visible Passes

Search period start: 28 February 2020 00:00
Search period end: 09 March 2020 00:00
Orbit: 901 x 1312 km, 63.4° (Epoch: 21 February)

Date Brightness Start Highest point End Pass type
(mag) Time Alt. Az. Time Alt. Az. Time Alt. Az.
28 Feb 5.5 01:01:47 24° N 01:02:00 24° N 01:07:35 10° ENE visible
28 Feb 4.6 02:49:13 15° NNW 02:54:37 46° NE 03:01:47 10° ESE visible
28 Feb 4.0 04:38:59 10° NW 04:45:50 59° WSW 04:53:21 10° SSE visible
29 Feb 5.7 00:18:22 20° NNE 00:18:22 20° NNE 00:21:54 10° NE visible
29 Feb 5.0 02:05:47 22° NNW 02:09:28 36° NNE 02:16:13 10° E visible
29 Feb 3.8 03:54:08 10° NW 04:01:06 82° SW 04:08:47 10° SE visible
29 Feb 5.6 19:41:13 10° SSW 19:41:32 12° SSW 19:41:32 12° SSW visible
29 Feb 6.1 23:34:59 14° NE 23:34:59 14° NE 23:36:24 10° NE visible
01 Mar 5.3 01:22:25 26° N 01:24:14 30° NNE 01:30:30 10° E visible
01 Mar 4.0 03:09:51 12° NW 03:16:16 74° NE 03:23:53 10° SE visible
01 Mar 4.6 05:00:44 10° NW 05:06:51 32° WSW 05:13:27 10° S visible
01 Mar 4.4 18:57:01 10° S 19:00:06 28° SSE 19:00:06 28° SSE visible
01 Mar 5.8 20:47:24 10° WSW 20:47:41 11° WSW 20:47:41 11° WSW visible
02 Mar 5.5 00:39:07 25° NNE 00:39:07 25° NNE 00:44:42 10° ENE visible
02 Mar 4.4 02:26:34 20° NNW 02:31:18 55° NE 02:38:41 10° ESE visible
02 Mar 4.1 04:15:37 10° NW 04:22:17 47° WSW 04:29:34 10° S visible
02 Mar 4.3 18:13:19 10° SSE 18:18:06 26° ESE 18:18:46 25° ESE visible
02 Mar 4.2 20:02:21 10° SW 20:06:22 44° WSW 20:06:22 44° WSW visible
02 Mar6.422:08:29NE22:08:29NE21:53:58Wvisible
02 Mar 5.8 23:55:56 19° NE 23:55:56 19° NE 23:58:57 10° ENE visible
03 Mar 4.8 01:43:23 29° NNW 01:46:14 42° NE 01:53:14 10° ESE visible
03 Mar 3.8 03:30:50 11° NW 03:37:37 67° SW 03:45:14 10° SSE visible
03 Mar 4.8 17:30:25 10° SE 17:33:48 16° ESE 17:37:16 10° ENE visible
03 Mar 3.2 19:17:35 10° SSW 19:23:34 80° SE 19:25:05 54° NE visible
03 Mar 5.3 21:09:36 10° W 21:12:40 25° WNW 21:12:40 25° WNW visible
03 Mar 6.2 23:12:55 11° NE 23:12:55 11° NE 23:13:20 10° NE visible
04 Mar 5.1 01:00:23 33° NNE 01:01:04 33° NNE 01:07:36 10° E visible
04 Mar 3.7 02:47:51 21° NW 02:52:50 88° NE 03:00:32 10° SE visible
04 Mar 4.8 04:37:37 10° WNW 04:43:12 25° WSW 04:49:09 10° SSW visible
04 Mar 3.5 18:33:10 10° SSW 18:38:55 53° ESE 18:43:41 17° NE visible
04 Mar 4.4 20:24:12 10° WSW 20:29:58 43° NW 20:31:16 38° N visible
04 Mar 6.0 22:17:42 10° WNW 22:30:11 - NE 22:18:51 14° NW visible
05 Mar 5.5 00:17:41 25° NE 00:17:41 25° NE 00:21:51 10° ENE visible
05 Mar 4.1 02:05:11 38° NNW 02:07:58 65° NE 02:15:30 10° SE visible
05 Mar 4.3 03:52:41 12° NW 03:58:42 37° WSW 04:05:37 10° S visible
05 Mar 4.0 17:49:08 10° S 17:54:24 34° ESE 17:59:57 10° NE visible
05 Mar 3.9 19:39:01 10° WSW 19:44:57 59° NW 19:49:37 19° NNE visible
05 Mar 5.4 21:32:09 10° WNW 21:37:11 25° NNW 21:37:11 25° NNW visible
05 Mar 6.1 23:35:21 12° ENE 23:35:21 12° ENE 23:36:04 10° ENE visible
06 Mar 4.5 01:22:53 49° NE 01:22:58 49° NE 01:30:12 10° ESE visible
06 Mar 3.9 03:10:25 28° WNW 03:14:06 54° WSW 03:21:32 10° SSE visible
06 Mar 3.4 18:54:04 10° SW 19:00:05 83° NW 19:06:33 10° NE visible
06 Mar 5.1 20:46:35 10° W 20:51:55 30° NNW 20:55:05 20° NNE visible
06 Mar 5.8 22:40:00 10° NW 22:53:29 - ENE 22:42:36 19° NNW visible
07 Mar 5.4 00:41:04 26° ENE 00:41:04 26° ENE 00:44:40 10° E visible
07 Mar 3.7 02:28:37 70° WNW 02:29:23 77° SW 02:37:03 10° SSE visible
07 Mar 5.0 04:16:12 14° WNW 04:19:30 19° WSW 04:24:34 10° SSW visible
07 Mar 3.4 18:09:26 10° SSW 18:15:21 68° SE 18:21:41 10° NE visible
07 Mar 4.8 20:01:06 10° W 20:06:43 37° NNW 20:12:35 11° NE visible
07 Mar 5.5 21:54:39 10° NW 21:59:33 22° N 22:00:04 22° N visible
07 Mar 6.0 23:46:47 10° NW 23:59:37 - E 23:47:33 13° NNW visible
08 Mar 4.5 01:47:13 44° SE 01:47:13 44° SE 01:52:13 10° SE visible
08 Mar 4.5 03:34:48 29° WSW 03:35:04 29° WSW 03:41:28 10° S visible
08 Mar 3.8 17:25:09 10° S 17:30:45 44° ESE 17:36:42 10° NE visible
08 Mar 4.3 19:15:47 10° WSW 19:21:37 48° NW 19:27:56 10° NE visible
08 Mar 5.5 21:09:09 10° WNW 21:14:08 24° N 21:17:13 17° NNE visible
08 Mar 5.7 23:01:51 10° NW 23:04:40 21° NNW 23:04:40 21° NNW visible
